DW8016 Weather Reports


time (UTC)temp
C
wind
direction
speed
KPH
gust
KPH
rain 1hr
cm
rain 24hr
cm
rain mn
cm
humidity
%
barometer
mb
20260831160123 28 61 0.0 4.8 0.00 2.84 0.03 76 1019.5
20260831155122 29 115 0.0 4.8 0.00 2.84 0.03 73 1019.2
20260831152939 28 105 1.6 9.7 0.00 2.84 0.03 75 1019.1
20260831145718 27 13 0.0 0.0 0.00 2.84 0.03 83 1019.4
20260831144740 27 83 0.0 0.0 0.00 2.84 0.03 82 1019.4
20260831143751 27 103 0.0 0.0 0.00 2.84 0.03 82 1019.2
20260831142751 27 114 0.0 8.0 0.00 2.84 0.03 81 1019.1
20260831141730 27 120 0.0 6.4 0.00 2.84 0.03 84 1018.9
20260831140742 26 78 0.0 8.0 0.00 2.84 0.03 86 1019.0
20260831135737 25 100 0.0 0.0 0.00 2.84 0.03 89 1019.1
20260831134746 25 96 0.0 0.0 0.00 2.84 0.03 90 1019.2
20260831131540 24 234 0.0 0.0 0.00 2.84 0.03 92 1019.3
20260831130515 23 234 0.0 0.0 0.00 2.84 0.03 93 1019.3
20260831125504 23 234 0.0 0.0 0.00 2.84 0.03 95 1019.3
20260831124525 22 234 0.0 0.0 0.00 2.84 0.03 95 1019.2
20260831123549 22 234 0.0 0.0 0.00 2.84 0.03 95 1019.1
20260831122600 22 234 0.0 0.0 0.00 2.84 0.03 95 1019.0
20260831121615 22 234 0.0 1.6 0.00 2.84 0.03 95 1018.9
20260831120543 22 234 0.0 0.0 0.00 2.84 0.03 95 1019.0
20260831114403 21 234 0.0 0.0 0.00 2.84 0.03 95 1018.9
20260831113338 21 234 0.0 0.0 0.00 2.84 0.03 95 1018.7
20260831112334 21 234 0.0 0.0 0.00 2.84 0.03 95 1018.5
20260831111302 21 234 0.0 0.0 0.00 2.84 0.03 95 1018.5
20260831105148 21 234 0.0 0.0 0.00 2.84 0.03 95 1018.3
20260831104131 21 234 0.0 0.0 0.00 2.84 0.03 95 1018.2
20260831103058 21 234 0.0 0.0 0.00 2.84 0.03 95 1018.0
20260831100936 21 234 0.0 0.0 0.00 2.84 0.03 95 1018.0
20260831095924 21 234 0.0 0.0 0.00 2.84 0.03 95 1018.1
20260831094921 21 234 0.0 0.0 0.00 2.84 0.03 95 1017.9
20260831093917 21 234 0.0 0.0 0.00 2.84 0.03 95 1018.0
20260831092850 21 234 0.0 0.0 0.00 2.84 0.03 95 1017.9
20260831091828 21 234 0.0 0.0 0.00 2.84 0.03 95 1017.9
20260831090832 21 234 0.0 0.0 0.00 2.84 0.03 95 1017.9
20260831085837 21 234 0.0 0.0 0.00 2.84 0.03 95 1017.9
20260831084844 21 234 0.0 0.0 0.00 2.84 0.03 95 1017.8
20260831083843 21 234 0.0 0.0 0.00 2.84 0.03 95 1017.8
20260831082819 21 234 0.0 0.0 0.00 2.84 0.03 95 1017.8
20260831081805 21 234 0.0 0.0 0.00 2.84 0.03 95 1017.8
20260831075604 21 234 0.0 0.0 0.00 2.82 0.00 94 1017.6
20260831074533 21 234 0.0 0.0 0.00 2.82 0.00 94 1017.6
20260831073550 21 234 0.0 0.0 0.00 2.82 0.00 95 1017.6
20260831072550 21 234 0.0 0.0 0.00 2.82 0.00 94 1017.6
20260831071553 21 234 0.0 0.0 0.00 2.82 0.00 94 1017.6
20260831070617 21 234 0.0 0.0 0.00 2.82 0.00 94 1017.7
20260831064431 22 234 0.0 0.0 0.00 2.82 0.00 94 1017.8
20260831062257 22 234 0.0 0.0 0.00 2.82 0.00 94 1017.9
20260831061257 22 234 0.0 0.0 0.00 2.82 0.00 94 1018.0
20260831060236 22 234 0.0 0.0 0.00 2.82 0.00 94 1018.0
20260831055204 22 234 0.0 0.0 0.00 2.82 0.00 94 1018.2
20260831054150 22 234 0.0 0.0 0.00 2.82 0.00 94 1018.1
20260831053140 22 234 0.0 0.0 0.00 2.82 0.00 94 1018.1
20260831051012 22 234 0.0 0.0 0.00 2.82 0.00 94 1018.2
20260831050016 22 234 0.0 0.0 0.00 2.82 0.00 94 1018.3
20260831045022 22 234 0.0 0.0 0.00 2.82 0.00 94 1018.4
20260831043948 22 234 0.0 0.0 0.00 2.82 0.00 94 1018.4
20260831043013 22 234 0.0 0.0 0.00 2.82 0.00 94 1018.3
20260831042027 22 234 0.0 0.0 0.00 2.82 0.00 94 1018.4
20260831040013 22 234 0.0 0.0 0.00 2.82 0.00 94 1018.5
20260831033915 22 234 0.0 0.0 0.00 2.82 2.79 94 1018.4
20260831032932 22 234 0.0 0.0 0.00 2.82 2.79 94 1018.4
20260831025745 22 234 0.0 0.0 0.00 2.82 2.79 93 1018.5
20260831024726 22 234 0.0 0.0 0.00 2.82 2.79 93 1018.5
20260831023700 22 234 0.0 0.0 0.00 2.82 2.79 93 1018.7
20260831022647 22 234 0.0 0.0 0.00 2.82 2.79 93 1018.7
20260831021651 22 234 0.0 0.0 0.00 2.82 2.79 93 1018.8
20260831020653 22 234 0.0 0.0 0.00 2.82 2.79 93 1018.7
20260831015704 22 234 0.0 0.0 0.00 2.82 2.79 92 1018.8
20260831014633 22 234 0.0 0.0 0.00 2.82 2.79 92 1018.9
20260831013631 22 234 0.0 0.0 0.00 2.82 2.79 92 1018.9
20260831012629 22 234 0.0 0.0 0.00 2.82 2.79 93 1018.8
20260831011557 22 234 0.0 0.0 0.00 2.82 2.79 92 1018.7
20260831010548 22 234 0.0 0.0 0.00 2.82 2.79 92 1018.6
20260831003309 22 165 0.0 4.8 1.63 2.72 2.74 90 1018.3
20260831002234 23 238 0.0 0.0 4.27 2.26 2.26 87 1019.1
20260831001222 23 238 1.6 8.0 5.97 1.42 1.55 86 1019.8
20260831000203 25 304 4.8 16.1 6.43 0.81 0.86 82 1020.0
20260830235142 27 304 6.4 16.1 0.00 0.00 0.00 74 1019.8
20260830234128 28 312 3.2 14.5 0.00 0.00 0.00 71 1018.9
20260830233113 28 202 3.2 16.1 0.00 0.00 0.00 70 1018.0
20260830232116 28 190 4.8 16.1 0.00 0.00 0.00 68 1017.9
20260830230009 29 194 3.2 12.9 0.00 0.00 0.00 67 1018.0
20260830224945 29 176 0.0 8.0 0.00 0.00 0.00 66 1018.0
20260830222829 30 165 3.2 12.9 0.00 0.00 0.00 64 1018.0
20260830220653 30 195 3.2 11.3 0.00 0.00 0.00 62 1017.7
20260830215646 30 216 4.8 12.9 0.00 0.00 0.00 61 1017.5
20260830214702 31 178 4.8 12.9 0.00 0.00 0.00 61 1017.6
20260830213708 31 167 3.2 11.3 0.00 0.00 0.00 60 1017.6
20260830212722 31 238 1.6 11.3 0.00 0.00 0.00 60 1017.7
20260830211725 31 185 1.6 9.7 0.00 0.00 0.00 60 1017.6
20260830210748 31 211 1.6 8.0 0.00 0.00 0.00 60 1017.6
20260830205730 31 226 0.0 3.2 0.00 0.00 0.00 58 1017.6
20260830204720 32 200 1.6 14.5 0.00 0.00 0.00 57 1017.6
20260830203719 32 195 4.8 14.5 0.00 0.00 0.00 55 1017.8
20260830202727 32 225 3.2 11.3 0.00 0.00 0.00 54 1017.8
20260830201735 33 277 3.2 11.3 0.00 0.00 0.00 52 1018.0
20260830194512 32 289 4.8 16.1 0.00 0.00 0.00 54 1017.9
20260830193506 31 237 3.2 14.5 0.00 0.00 0.00 55 1018.1
20260830192514 31 234 8.0 14.5 0.00 0.00 0.00 54 1018.2
20260830190330 32 243 4.8 17.7 0.00 0.00 0.00 55 1018.6
20260830183142 32 278 6.4 17.7 0.00 0.00 0.00 57 1019.3
20260830182135 31 246 6.4 17.7 0.00 0.00 0.00 57 1019.5
20260830181159 31 254 3.2 14.5 0.00 0.00 0.00 62 1019.7
20260830180211 30 289 4.8 14.5 0.00 0.00 0.00 64 1019.9
20260830175202 30 246 1.6 9.7 0.00 0.00 0.00 63 1020.2
20260830174158 30 261 0.0 6.4 0.00 0.00 0.00 65 1020.2
20260830173131 30 254 3.2 14.5 0.00 0.00 0.00 63 1020.4
20260830171020 30 203 4.8 16.1 0.00 0.00 0.00 61 1020.6
20260830165954 31 188 3.2 16.1 0.00 0.00 0.00 61 1020.6
20260830164925 30 220 3.2 19.3 0.00 0.00 0.00 64 1020.7
20260830163939 30 254 8.0 19.3 0.00 0.00 0.00 65 1020.7
20260830162938 30 224 4.8 16.1 0.00 0.00 0.00 64 1020.9
20260830161920 29 236 4.8 16.1 0.00 0.00 0.00 68 1021.0
20260830160920 28 172 4.8 16.1 0.00 0.00 0.00 68 1021.1